CAPE
341 241 225 46 0 0 0 0 0 0 0 0 0 0 0 0 0 0 0 0 0 0 0 0 0 1 1 1 1 1 2 1 5 5 2 11 7 8
307 199 95 12 0 0 0 0 0 0 0 0 0 0 0 0 0 0 0 0 0 0 0 0 0 1 1 0 3 2 1 2 6 2 2 3 10 15
127 153 61 0 0 0 0 0 0 0 0 0 0 0 0 0 0 0 0 0 0 0 0 0 0 1 1 1 1 1 1 2 2 2 2 4 8 11
58 57 23 0 0 0 0 0 0 0 0 0 0 0 0 0 0 0 0 0 0 0 0 0 0 0 1 0 0 0 1 0 1 2 1 2 4 3
10 29 2 0 0 0 0 0 0 0 0 0 0 0 0 0 0 0 0 0 0 2 0 0 0 0 0 0 0 0 0 0 1 1 2 0 2 2
2 0 0 0 0 0 0 0 0 0 0 0 0 0 0 0 0 0 0 0 0 0 0 0 0 0 0 0 0 0 0 0 0 2 0 0 1 1
2 1 0 0 0 0 0 0 0 0 0 0 0 0 0 0 0 0 0 0 0 0 0 0 0 0 0 0 0 0 0 0 0 1 1 0 0 0
2 3 5 1 2 0 0 0 0 0 0 0 0 0 0 0 0 0 0 0 0 0 0 0 0 0 0 0 0 0 0 0 0 0 0 0 0 0
1 5 3 2 0 0 0 0 0 0 0 0 0 0 0 0 0 0 0 0 0 0 0 0 0 0 0 0 0 0 0 0 0 0 0 0 0 0
2 1 0 1 8 0 0 0 0 0 0 0 0 0 0 0 0 0 0 0 0 0 0 0 0 0 0 0 0 0 0 0 0 0 0 0 0 0
6 5 8 5 0 0 0 0 0 0 0 0 0 0 0 0 0 0 0 0 0 0 0 0 0 0 0 0 0 0 0 0 0 0 0 0 0 0
6 4 2 1 0 0 0 0 0 0 0 0 0 0 0 0 0 0 0 0 0 0 0 0 0 0 0 0 0 0 0 0 0 0 0 0 0 0
8 5 3 0 0 0 0 0 0 0 0 0 0 0 0 0 0 0 0 0 0 0 0 0 0 0 0 0 0 0 0 0 0 0 0 0 0 0
8 10 4 0 0 0 0 0 0 0 0 0 0 0 0 0 0 0 0 0 0 0 0 0 0 0 0 0 0 0 0 0 0 0 0 0 0 0
3 3 4 2 0 0 0 0 0 0 0 0 0 0 0 0 0 0 0 0 0 0 0 0 0 0 0 0 0 0 0 0 0 0 0 0 0 0
4 0 0 0 0 0 0 0 0 0 0 0 0 0 0 0 0 0 0 0 0 0 0 0 0 0 0 0 0 0 0 0 0 0 0 0 0 0
2 5 5 1 3 2 0 0 0 0 0 0 0 0 0 0 0 0 0 0 0 0 0 0 0 0 0 0 0 0 0 0 0 0 0 0 0 0
5 5 4 5 2 1 0 0 0 0 0 0 0 0 0 0 0 0 0 0 0 0 0 0 0 0 0 0 0 0 0 0 0 0 0 0 0 0
6 7 4 4 2 0 0 0 0 0 1 0 0 0 0 0 0 0 0 0 0 0 0 0 0 0 0 0 0 0 0 0 0 0 0 0 0 0
2 3 3 2 1 0 0 0 0 3 2 0 0 0 0 0 0 0 0 0 0 0 0 0 0 0 0 0 0 0 0 0 0 0 0 0 0 0
3 1 0 0 0 0 0 1 1 2 2 0 0 0 0 0 0 0 0 0 0 0 0 0 0 0 0 0 0 0 0 0 0 0 0 0 0 0
3 1 1 0 0 0 0 1 2 3 2 0 0 0 0 0 0 0 0 0 0 0 0 0 0 0 0 0 0 0 0 0 0 0 0 0 0 0
2 1 1 0 0 0 1 1 4 1 0 0 0 0 0 0 0 0 0 0 0 0 0 0 0 0 0 0 0 0 0 0 0 0 0 0 0 0
CIN
-260 -245 -212 -335 -0 -0 -0 -0 -0 -0 -0 -0 -0 -0 -0 -0 -0 -0 -0 -0 -0 -0 -0 -0 -0 -0 -0 -0 -0 -0 -0 -0 -0 -0 -0 -0 -0 -0
-305 -289 -354 -423 -1 -0 -0 -0 -0 -0 -0 -0 -0 -0 -0 -0 -0 -0 -0 -0 -0 -0 -0 -0 -0 -0 -0 -0 -0 -0 -0 -0 -0 -0 -0 -0 -0 -0
-400 -320 -374 -40 -1 -0 -0 -0 -0 -0 -0 -0 -0 -0 -0 -0 -0 -0 -0 -0 -0 -0 -0 -0 -0 -0 -0 -0 -0 -0 -0 -0 -0 -0 -0 -0 -0 -0
-491 -436 -480 -0 -0 -0 -0 -0 -0 -0 -0 -0 -0 -0 -0 -0 -0 -0 -0 -0 -0 -0 -0 -0 -0 -0 -0 -0 -0 -0 -0 -1 -0 -0 -0 -0 -0 -0
-549 -473 -228 -0 -0 -0 -0 -0 -0 -0 -0 -0 -0 -0 -0 -0 -0 -0 -0 -0 -0 -0 -0 -0 -0 -0 -0 -0 -0 -0 -0 -0 -0 -0 -0 -0 -0 -0
-610 -0 -0 -0 -0 -0 -0 -0 -0 -0 -0 -0 -0 -0 -0 -0 -0 -0 -0 -0 -0 -0 -0 -0 -0 -0 -0 -0 -0 -0 -0 -0 -0 -0 -0 -0 -0 -0
-0 -0 -0 -0 -0 -0 -0 -0 -0 -0 -0 -0 -0 -0 -0 -0 -0 -0 -0 -0 -0 -0 -0 -0 -0 -0 -0 -0 -0 -0 -0 -0 -0 -0 -0 -0 -0 -0
-0 -0 -0 -0 -0 -0 -0 -0 -0 -0 -0 -0 -0 -0 -0 -0 -0 -0 -0 -0 -0 -0 -0 -0 -0 -0 -0 -0 -0 -0 -0 -0 -0 -0 -0 -0 -0 -0
-0 -0 -0 -0 -0 -0 -0 -0 -0 -0 -0 -0 -0 -0 -0 -0 -0 -0 -0 -0 -0 -0 -0 -0 -0 -0 -0 -0 -0 -0 -0 -0 -0 -0 -0 -0 -0 -0
-0 -0 -0 -0 -0 -0 -0 -0 -0 -0 -0 -0 -0 -0 -0 -0 -0 -0 -0 -0 -0 -0 -0 -0 -0 -0 -0 -0 -0 -0 -0 -0 -0 -0 -0 -0 -0 -0
-0 -0 -0 -0 -0 -0 -0 -0 -0 -0 -0 -0 -0 -0 -0 -0 -0 -0 -0 -0 -0 -0 -0 -0 -0 -0 -0 -0 -0 -0 -0 -0 -0 -0 -0 -0 -0 -0
-0 -0 -0 -0 -0 -0 -0 -0 -0 -0 -0 -0 -0 -0 -0 -0 -0 -0 -0 -0 -0 -0 -0 -0 -0 -0 -0 -0 -0 -0 -0 -0 -0 -0 -0 -0 -0 -0
-0 -0 -0 -0 -0 -0 -0 -0 -0 -0 -0 -0 -0 -0 -0 -0 -0 -0 -0 -0 -0 -0 -0 -0 -0 -0 -0 -0 -0 -0 -0 -0 -0 -0 -0 -0 -0 -0
-0 -0 -0 -0 -0 -0 -0 -0 -0 -0 -0 -0 -0 -0 -0 -0 -0 -0 -0 -0 -0 -0 -0 -0 -0 -0 -0 -0 -0 -0 -0 -0 -0 -0 -0 -0 -0 -0
-0 -0 -0 -0 -0 -0 -0 -0 -0 -0 -0 -0 -0 -0 -0 -0 -0 -0 -0 -0 -0 -0 -0 -0 -0 -0 -0 -0 -0 -0 -0 -0 -0 -0 -0 -0 -0 -0
-0 -0 -0 -0 -0 -0 -0 -0 -0 -0 -0 -0 -0 -0 -0 -0 -0 -0 -0 -0 -0 -0 -0 -0 -0 -0 -0 -0 -0 -0 -0 -0 -0 -0 -0 -0 -0 -0
-0 -0 -0 -0 -0 -0 -0 -0 -0 -0 -0 -0 -0 -0 -0 -0 -0 -0 -0 -0 -0 -0 -0 -0 -0 -0 -0 -0 -0 -0 -0 -0 -0 -0 -0 -0 -0 -0
-0 -0 -0 -0 -0 -0 -0 -0 -0 -0 -0 -0 -0 -0 -0 -0 -0 -0 -0 -0 -0 -0 -0 -0 -0 -0 -0 -0 -0 -0 -0 -0 -0 -0 -0 -0 -0 -0
-0 -0 -0 -0 -0 -0 -0 -0 -0 -0 -0 -0 -0 -0 -0 -0 -0 -0 -0 -0 -0 -0 -0 -0 -0 -0 -0 -0 -0 -0 -0 -0 -0 -0 -0 -0 -0 -0
-0 -0 -0 -0 -0 -0 -0 -0 -0 -0 -0 -0 -0 -0 -0 -0 -0 -0 -0 -0 -0 -0 -0 -0 -0 -0 -0 -0 -0 -0 -0 -0 -0 -0 -0 -0 -0 -0
-0 -0 -0 -0 -0 -0 -0 -0 -0 -0 -0 -0 -0 -0 -0 -0 -0 -0 -0 -0 -0 -0 -0 -0 -0 -0 -0 -0 -0 -0 -0 -0 -0 -0 -0 -0 -0 -0
-0 -0 -0 -0 -0 -0 -0 -0 -0 -0 -0 -0 -0 -0 -0 -0 -0 -0 -0 -0 -0 -0 -0 -0 -0 -0 -0 -0 -0 -0 -0 -0 -0 -0 -0 -0 -0 -0
-0 -0 -0 -0 -0 -0 -0 -0 -0 -0 -0 -0 -0 -0 -0 -0 -0 -0 -0 -0 -0 -0 -0 -0 -0 -0 -0 -0 -0 -0 -0 -0 -0 -0 -0 -0 -0 -0
Wind_Speed
18 19 19 17 16 15 12 11 9 12 14 13 13 10 9 12 14 15 17 19 22 23 24 26 27 29 31 34 36 38 40 42 44 46 46 48 51 54
21 20 19 19 17 15 13 11 15 17 17 16 14 7 7 11 13 14 16 18 20 21 23 25 27 29 31 33 35 38 41 43 44 45 46 47 49 51
24 23 21 19 19 18 15 13 15 17 14 15 13 6 9 10 12 14 15 17 17 19 21 23 26 28 30 33 36 38 40 43 44 44 45 45 46 48
26 25 23 21 20 19 17 15 16 15 14 9 7 9 10 10 11 13 14 15 15 17 20 23 25 28 30 34 36 38 40 43 44 44 43 43 44 45
26 25 25 23 20 19 19 15 16 15 12 9 9 10 10 9 11 13 13 14 16 16 19 22 25 27 30 33 36 38 41 43 43 43 42 41 41 42
24 25 25 25 21 19 16 19 15 14 10 7 8 7 9 9 10 10 12 13 17 18 18 22 24 27 30 33 35 38 40 41 42 43 42 41 40 41
22 23 21 26 24 20 17 13 13 14 10 7 7 7 8 7 6 10 11 10 16 17 18 20 23 27 29 32 33 37 39 40 41 41 41 40 40 40
20 19 20 21 11 18 16 14 15 12 10 9 8 6 7 5 7 7 7 10 14 17 17 19 21 24 27 30 33 35 37 39 40 41 42 40 39 39
19 18 18 17 14 16 14 14 14 12 9 7 6 5 5 3 4 4 6 10 13 15 14 18 20 22 24 27 31 34 35 37 37 38 40 40 38 38
18 19 16 15 12 16 13 13 14 11 8 9 5 4 7 1 2 3 5 9 13 16 14 18 18 19 21 26 30 31 33 34 35 36 37 38 38 37
13 13 14 11 11 11 12 12 11 10 9 5 3 3 3 3 4 5 6 7 13 13 15 16 17 18 18 23 26 29 29 31 33 34 35 36 36 36
13 13 14 12 13 12 13 12 11 9 5 2 3 6 4 4 4 5 4 7 12 14 12 15 16 17 20 20 22 25 27 28 29 31 32 34 35 34
16 15 15 14 16 14 13 12 11 7 5 3 5 6 5 4 4 5 4 7 10 14 11 14 16 17 18 19 20 22 25 26 25 27 30 32 33 34
17 16 16 15 15 13 11 9 9 6 6 7 7 6 4 3 5 7 9 10 11 12 10 12 16 16 18 19 21 21 20 22 23 24 26 28 29 31
15 14 11 13 13 12 14 11 10 8 10 9 8 7 4 1 4 6 9 10 12 12 12 13 14 16 17 19 20 22 22 19 23 23 24 25 27 28
10 11 12 10 11 13 12 16 10 9 11 11 9 7 4 1 1 3 6 7 9 10 12 13 13 14 17 18 19 20 20 22 22 22 20 22 25 27
12 11 12 12 13 12 13 17 12 8 10 9 8 6 5 3 2 2 5 5 8 7 10 12 14 15 17 17 19 19 20 21 21 22 21 21 24 26
13 15 16 15 14 14 14 13 10 11 9 9 8 7 7 6 5 3 4 4 6 7 9 10 11 15 18 18 17 17 18 20 21 22 21 22 23 25
17 17 17 14 14 14 13 15 13 11 10 10 10 8 7 7 6 5 4 5 7 9 11 11 12 15 18 20 18 15 17 18 20 20 22 22 23 23
20 19 19 17 16 15 15 14 12 12 12 12 11 11 10 9 7 8 7 7 7 9 11 11 12 14 17 18 18 16 13 17 19 21 22 21 21 21
22 20 19 18 17 16 15 14 13 14 14 13 12 12 11 10 10 8 8 7 7 9 11 11 10 12 14 15 17 17 16 13 15 19 21 22 24 23
25 24 21 18 18 18 16 15 14 14 14 14 13 12 11 11 10 9 8 8 7 9 11 10 10 11 14 14 16 17 18 17 15 15 15 17 21 24
27 25 23 19 18 18 17 16 15 15 15 14 13 13 12 11 10 9 9 8 8 9 10 9 10 12 13 14 16 17 18 18 19 19 19 15 15 18
Wind_Direction
247 257 267 273 277 279 280 273 291 297 304 311 322 337 356 359 0 3 1 3 5 9 10 7 5 6 1 358 357 358 355 353 351 350 351 351 350 351
255 251 258 268 270 271 266 269 287 297 301 310 318 338 357 357 359 3 3 1 8 14 15 11 7 8 5 3 0 358 355 353 352 354 354 354 355 355
255 252 253 258 265 268 268 276 278 292 297 316 320 341 347 349 356 0 3 1 8 18 15 13 10 11 7 3 0 359 358 356 357 357 357 358 359 359
255 253 252 257 260 260 265 276 271 283 294 299 315 326 336 348 353 356 0 4 6 12 13 11 13 11 7 3 1 1 0 359 359 -0 0 1 2 2
254 251 250 250 254 260 264 268 268 278 285 288 306 320 336 348 351 354 360 3 1 11 11 11 10 9 6 2 3 3 2 1 3 4 4 5 5 6
253 252 252 250 245 248 258 277 265 271 281 283 307 315 329 341 347 355 354 356 359 359 6 9 9 8 6 4 5 4 3 4 6 7 8 9 9 8
259 256 249 252 241 238 241 250 255 266 266 271 294 310 320 328 333 345 349 357 357 356 1 4 7 6 5 6 7 7 6 8 10 11 12 13 13 11
257 258 262 266 237 245 238 244 244 242 249 273 288 288 307 327 341 349 1 356 348 356 2 5 6 6 7 8 8 8 9 11 14 15 16 16 16 14
257 256 263 251 249 265 260 251 245 253 241 261 266 284 305 314 350 3 356 352 353 358 9 4 7 7 10 11 10 10 12 14 16 19 20 19 19 20
254 254 237 252 247 239 248 223 243 256 266 290 283 293 328 14 33 13 19 13 7 4 9 2 8 8 11 12 10 12 14 16 18 22 23 22 21 23
252 242 231 237 220 193 194 213 236 263 288 307 323 349 12 41 45 41 17 16 356 359 6 6 6 7 10 11 11 14 18 18 20 22 22 23 23 24
263 252 224 229 199 198 209 208 225 242 245 287 330 351 353 12 33 12 41 5 2 359 4 5 7 7 3 10 11 15 16 19 21 22 22 21 20 25
253 247 238 213 201 209 215 221 221 210 221 263 302 324 335 352 7 14 27 6 1 359 10 9 7 9 7 8 11 15 16 18 20 21 19 17 18 19
257 250 243 217 219 227 229 210 192 218 252 266 278 292 306 341 10 11 8 7 6 6 23 15 7 6 7 7 7 12 16 19 20 21 18 14 13 15
264 256 221 228 232 230 209 201 204 241 256 250 268 270 280 348 36 22 14 19 17 16 16 10 8 10 9 6 6 9 11 17 16 17 14 12 10 10
247 238 230 222 211 230 235 236 248 251 252 267 262 263 270 211 44 13 5 14 5 0 4 5 9 8 4 4 6 6 11 11 12 14 16 12 6 7
237 229 216 220 229 232 222 245 250 257 260 275 257 244 244 233 279 338 348 354 345 349 355 359 5 3 0 2 359 4 7 9 10 11 12 10 6 4
226 217 222 228 229 232 234 236 238 239 244 247 242 231 236 243 267 288 324 320 330 339 340 352 356 354 353 355 2 1 5 7 8 9 10 6 3 3
237 234 231 232 230 228 226 233 246 247 245 245 240 230 239 249 253 263 286 306 316 325 330 339 341 343 344 345 356 6 3 5 6 7 7 6 2 2
244 241 243 240 240 230 228 232 242 239 234 236 247 244 244 246 253 272 281 289 304 319 321 329 330 333 337 345 353 0 10 2 1 1 2 2 2 2
250 247 244 242 240 236 228 235 239 240 236 237 242 239 244 244 258 259 274 276 295 310 310 313 321 335 344 353 351 352 356 2 360 357 358 357 357 357
254 251 248 244 242 236 234 237 242 242 235 234 239 241 241 238 247 262 267 276 284 299 309 318 326 333 335 340 343 347 350 354 357 356 354 355 356 353
255 253 251 248 242 237 238 241 246 238 237 238 236 240 238 240 244 254 267 272 285 297 308 313 319 326 334 339 341 345 347 350 352 353 352 353 351 349